Location: Bonningues
(50.7927°N, 2.0150°E)
Time: 10:41:34
(UTC+00:00)

USA 238 - Pass Details

Date: 08 August 2020
Orbit: 1006 x 1206 km, 63.4° (Epoch: 17 September)

Event Time Altitude Azimuth Distance (km) Brightness Sun altitude
Rises 22:19:41 0° 224° (SW) 3,747 6.4 -20.0°
Reaches altitude 10° 22:22:14 10° 225° (SW) 2,814 5.7 -20.2°
Maximum altitude 22:28:53 85° 314° (NW) 1,066 3.7 -20.6°
Drops below altitude 10° 22:35:53 10° 44° (NE) 2,954 6.3 -21.1°
Sets 22:38:37 0° 45° (NE) 3,944 7.0 -21.2°
